Location: Enborne
(51.3833°N, 1.3667°W)
Time: 13:59:42
(UTC+00:00)

Cosmos 1844 Rocket - Pass Details

Date: 18 January 2021
Orbit: 826 x 843 km, 71.0° (Epoch: 05 March)

Event Time Altitude Azimuth Distance (km) Brightness Sun altitude
Exits shadow 05:41:21 20° 218° (SW) 1,833 4.2 -21.2°
Drops below altitude 10° 05:43:31 10° 200° (SSW) 2,430 5.0 -20.8°
Sets 05:46:15 0° 188° (S) 3,356 5.8 -20.4°
